[[{"header":{"parameterUnit":"m.s-1","parameterCategory":1,"la1":30.2991,"la2":30.254,"lo1":-89.0895,"lo2":-89.0444,"dy":0.0017,"dx":0.0017,"nx":28,"ny":28,"refTime":"2024-02-15T03:00:00:Z","depth":0,"parameterNumber":2,"parameterNumberName":"U-component_of_WINDS"},"data":[0,0,0,0,0,0,0,0,0,0,0,0,0,0,0,0,0,0,0,0,0,0,0,0,0,0,0,0,0,0,0,0,0,0,0,0,0,0,0,0,0,0,0,0,0,0,0,0,0,0,0,0,0,0,0,0,0,0,-2.2569,-2.2569,0,-2.2574,-2.2574,-2.2574,-2.2512,-2.251,-2.2508,-2.2507,-2.2512,-2.2514,-2.2515,0,0,0,0,0,0,0,0,0,0,0,0,0,-2.2506,-2.2508,-2.2569,-2.2569,-2.2569,-2.2574,-2.2574,-2.2574,-2.2512,-2.251,-2.2508,-2.2506,-2.2511,-2.2513,-2.2516,0,0,0,0,0,0,0,0,0,0,0,0,0,-2.2525,-2.2508,-2.2569,-2.2539,-2.2536,-2.2574,-2.2574,-2.2574,-2.2513,-2.251,-2.2507,-2.2505,-2.2511,-2.2513,-2.2516,-2.2583,0,0,-2.2524,-2.2525,0,0,0,0,0,0,0,0,-2.2524,-2.2527,-2.2543,-2.2541,-2.2538,-2.254,-2.2554,-2.2577,-2.2513,-2.2522,-2.2507,-2.2504,-2.2523,-2.2525,-2.2531,-2.2583,-2.2584,-2.2524,-2.2526,-2.2527,-2.2527,0,0,0,0,0,0,0,-2.2523,-2.2527,-2.2571,-2.2543,-2.254,-2.2525,-2.2525,-2.2558,-2.2537,-2.2521,-2.2516,-2.2518,-2.2521,-2.2529,-2.2531,-2.2584,-2.2524,-2.2526,-2.2528,-2.2529,-2.2693,-2.2696,0,0,0,0,0,0,-2.2525,-2.2526,-2.2571,-2.2571,-2.2524,-2.2528,-2.2528,-2.2542,-2.2536,-2.2533,-2.252,-2.2515,-2.2526,-2.2528,-2.2531,-2.261,-2.2527,-2.2529,-2.2531,-2.269,-2.2694,-2.2697,0,0,0,0,0,0,-2.2524,-2.253,-2.2571,-2.2547,-2.2551,-2.2532,-2.2548,-2.2543,-2.2551,-2.2535,-2.2531,-2.2531,-2.2524,-2.2527,-2.2571,-2.261,-2.253,-2.2533,-2.2687,-2.2691,-2.2695,-2.2769,0,0,0,0,0,0,-2.2523,-2.253,-2.2555,-2.2548,-2.2553,-2.2611,-2.255,-2.2545,-2.2555,-2.2549,-2.2545,-2.2542,-2.2522,-2.2567,-2.2574,-2.2612,-2.2535,-2.2683,-2.2689,-2.2694,-2.2763,-2.2776,-2.2786,0,0,0,0,0,-2.2521,-2.2575,-2.2557,-2.2562,-2.2584,-2.2613,-2.2616,-2.2591,-2.2559,-2.2584,-2.2575,-2.2542,-2.2604,-2.2572,-2.2579,-2.2618,-2.2681,-2.2687,-2.2693,-2.2758,-2.2773,-2.2786,0,0,0,0,0,0,-2.2587,-2.2574,-2.2553,-2.2607,-2.2612,-2.2602,-2.2633,-2.2607,-2.2621,-2.2614,-2.2584,-2.2583,-2.2633,-2.263,-2.2594,-2.2684,-2.2637,-2.2645,-2.2684,-2.2698,-2.2709,-2.2709,-2.2537,0,0,0,0,0,-2.2608,-2.2632,-2.262,-2.2669,-2.2672,-2.2653,-2.2664,-2.2645,-2.2649,-2.265,-2.2644,-2.2649,-2.2669,-2.2683,-2.2701,-2.2763,-2.2762,-2.2793,-2.2805,-2.2814,-2.2821,-2.2855,-2.2869,-2.2717,-2.2717,-2.2717,0,0,-2.2651,-2.2647,-2.2664,-2.2682,-2.2683,-2.271,-2.2655,-2.2685,-2.2704,-2.2655,-2.2696,-2.2692,-2.2695,-2.2748,-2.2771,-2.2747,-2.2863,-2.2822,-2.283,-2.2832,-2.2863,-2.2877,-2.289,-2.2722,-2.2721,-2.272,0,0,-2.2743,-2.2743,-2.2784,-2.2787,-2.279,-2.2777,-2.2787,-2.2782,-2.2777,-2.2818,-2.2782,-2.2805,-2.2841,-2.2845,-2.2852,-2.2948,-2.292,-2.2955,-2.3014,-2.3047,-2.3059,-2.307,-2.3105,-2.3118,-2.2962,-2.2962,-2.2963,0,-2.2797,-2.2835,-2.2808,-2.2842,-2.2851,-2.2808,-2.285,-2.2854,-2.2863,-2.2871,-2.2844,-2.2889,-2.2888,-2.2942,-2.2966,-2.2972,-2.2984,-2.2955,-2.306,-2.307,-2.3079,-2.3113,-2.3126,-2.2967,-2.2966,-2.2966,-2.2965,0,-2.2901,-2.2929,-2.2962,-2.2972,-2.2985,-2.3023,-2.3002,-2.3019,-2.2999,-2.2989,-2.3032,-2.303,-2.3047,-2.3059,-2.3039,-2.3111,-2.3096,-2.3065,-2.3017,-2.3099,-2.313,-2.3142,-2.2973,-2.2971,-2.297,-2.2969,0,0,-2.3035,-2.3031,-2.3044,-2.3048,-2.3049,-2.307,-2.3106,-2.3124,-2.3139,-2.3147,-2.3177,-2.3209,-2.3181,-2.3189,-2.317,-2.3199,-2.3277,-2.3164,-2.3164,-2.3186,-2.3357,-2.338,-2.3396,-2.3258,-2.326,-2.3262,-2.3357,0,-2.3126,-2.3187,-2.3165,-2.3228,-2.3254,-2.3214,-2.3245,-2.325,-2.3242,-2.3263,-2.3254,-2.3278,-2.3238,-2.3243,-2.327,-2.3261,-2.3311,-2.3254,-2.3286,-2.3287,-2.3287,-2.3411,-2.3436,-2.3526,-2.3368,-2.337,-2.3372,0,-2.324,-2.3253,-2.3319,-2.3317,-2.3327,-2.3356,-2.3371,-2.3391,-2.3395,-2.3388,-2.3398,-2.3373,-2.3409,-2.3361,-2.3411,-2.3373,-2.3384,-2.3383,-2.3385,-2.3388,-2.3335,-2.3418,-2.3554,-2.3568,-2.339,-2.3389,-2.3388,0,-2.3332,-2.3366,-2.341,-2.3415,-2.3414,-2.3435,-2.3436,-2.3438,-2.345,-2.3463,-2.3471,-2.3488,-2.3498,-2.3512,-2.3493,-2.346,-2.3546,-2.3496,-2.3541,-2.3542,-2.3561,-2.356,-2.3702,-2.3568,-2.3568,-2.3568,-2.3567,0,-2.3436,-2.3478,-2.3452,-2.3479,-2.3526,-2.35,-2.3547,-2.3542,-2.3545,-2.3571,-2.3538,-2.3563,-2.3536,-2.3559,-2.3544,-2.3588,-2.3593,-2.3588,-2.3584,-2.3591,-2.3592,-2.3599,-2.3592,-2.3571,-2.357,-2.357,-2.3569,0,-2.3546,-2.353,-2.3576,-2.3571,-2.3571,-2.3606,-2.3602,-2.3627,-2.3617,-2.3651,-2.3658,-2.3642,-2.3668,-2.365,-2.3675,-2.3666,-2.3724,-2.371,-2.3723,-2.3719,-2.3766,-2.3762,-2.3917,-2.3936,-2.379,-2.3791,-2.3792,0,-2.3614,-2.3645,-2.3645,-2.366,-2.3663,-2.3688,-2.3701,-2.3677,-2.3692,-2.3701,-2.3725,-2.3748,-2.3765,-2.3808,-2.3799,-2.3819,-2.3806,-2.3859,-2.3809,-2.3816,-2.3808,-2.3807,-2.3811,-2.387,-2.3871,-2.3873,-2.3874,0,-2.3736,-2.3727,-2.3747,-2.3765,-2.3782,-2.3794,-2.3804,-2.3819,-2.3795,-2.3814,-2.384,-2.3853,-2.388,-2.3903,-2.392,-2.392,-2.3894,-2.389,-2.3902,-2.391,-2.3916,-2.3914,-2.3751,-2.3886,-2.3885,-2.3884,-2.3884,-2.3883,-2.3828,-2.3854,-2.3859,-2.3882,-2.3888,-2.3898,-2.3923,-2.3916,-2.3938,-2.3958,-2.3943,-2.3974,-2.3979,-2.3999,-2.4003,-2.4028,-2.4006,-2.4022,-2.4027,-2.4031,-2.4039,-2.3912,-2.403,-2.403,-2.403,-2.4029,-2.4029,0,-2.3949,-2.395,-2.3972,-2.3988,-2.4007,-2.3981,-2.3991,-2.4009,-2.4037,-2.4044,-2.4062,-2.4093,-2.4116,-2.411,-2.413,-2.4151,-2.414,-2.4158,-2.4156,-2.4157,-2.4056,-2.4044,-2.4167,-2.4167,-2.4167,-2.4167,-2.4167,-2.4167,-2.4014,-2.4059,-2.4051,-2.4098,-2.4099,-2.413,-2.4138,-2.4148,-2.4154,-2.419,-2.4209,-2.4205,-2.4207,-2.4228,-2.4248,-2.4246,-2.4256,-2.4278,-2.4272,-2.4177,-2.4164,-2.4151,-2.414,-2.428,-2.428,-2.437,-2.4371,-2.4372]},{"header":{"parameterUnit":"m.s-1","parameterCategory":1,"la1":30.2991,"la2":30.254,"lo1":-89.0895,"lo2":-89.0444,"dy":0.0017,"dx":0.0017,"nx":28,"ny":28,"refTime":"2024-02-15T03:00:00:Z","depth":0,"parameterNumber":3,"parameterNumberName":"V-component_of_WINDS"},"data":[0,0,0,0,0,0,0,0,0,0,0,0,0,0,0,0,0,0,0,0,0,0,0,0,0,0,0,0,0,0,0,0,0,0,0,0,0,0,0,0,0,0,0,0,0,0,0,0,0,0,0,0,0,0,0,0,0,0,-0.8891,-0.8892,0,-0.8936,-0.8936,-0.8937,-0.8922,-0.8921,-0.892,-0.8919,-0.8966,-0.8968,-0.897,0,0,0,0,0,0,0,0,0,0,0,0,0,-0.8794,-0.8796,-0.8891,-0.8892,-0.8892,-0.8936,-0.8936,-0.8937,-0.8922,-0.8921,-0.892,-0.8918,-0.8965,-0.8968,-0.897,0,0,0,0,0,0,0,0,0,0,0,0,0,-0.8837,-0.8797,-0.8891,-0.889,-0.889,-0.8936,-0.8936,-0.8937,-0.8922,-0.8921,-0.8919,-0.8918,-0.8964,-0.8968,-0.8971,-0.902,0,0,-0.8981,-0.8982,0,0,0,0,0,0,0,0,-0.8835,-0.8841,-0.889,-0.889,-0.8891,-0.8922,-0.8919,-0.8965,-0.8923,-0.891,-0.8919,-0.8917,-0.8953,-0.8957,-0.8968,-0.9023,-0.9025,-0.8981,-0.8983,-0.8984,-0.8985,0,0,0,0,0,0,0,-0.8832,-0.8839,-0.8909,-0.889,-0.8891,-0.8888,-0.8892,-0.8928,-0.8939,-0.8911,-0.891,-0.8916,-0.8953,-0.8965,-0.8969,-0.9025,-0.8981,-0.8984,-0.8986,-0.8987,-0.9121,-0.9123,0,0,0,0,0,0,-0.8829,-0.8837,-0.8908,-0.891,-0.8859,-0.8891,-0.8896,-0.8913,-0.8939,-0.8941,-0.8917,-0.8915,-0.896,-0.8966,-0.8971,-0.903,-0.8984,-0.8987,-0.8989,-0.912,-0.9122,-0.9124,0,0,0,0,0,0,-0.8826,-0.8835,-0.8906,-0.8873,-0.8882,-0.8894,-0.8914,-0.8915,-0.8927,-0.8943,-0.8945,-0.8928,-0.8959,-0.8966,-0.9008,-0.9031,-0.8989,-0.8992,-0.9118,-0.912,-0.9123,-0.9148,0,0,0,0,0,0,-0.8824,-0.8834,-0.8853,-0.8874,-0.8884,-0.8942,-0.8915,-0.8917,-0.8933,-0.8931,-0.8954,-0.8956,-0.8959,-0.9003,-0.9011,-0.9035,-0.8994,-0.9116,-0.9119,-0.9122,-0.9145,-0.9151,-0.9156,0,0,0,0,0,-0.882,-0.8859,-0.8854,-0.8863,-0.8907,-0.8943,-0.8949,-0.8951,-0.8935,-0.8954,-0.8964,-0.8955,-0.9028,-0.9007,-0.9016,-0.9041,-0.9114,-0.9118,-0.9122,-0.9143,-0.915,-0.9156,0,0,0,0,0,0,-0.8841,-0.8862,-0.8856,-0.8903,-0.8921,-0.894,-0.8964,-0.8959,-0.8982,-0.8979,-0.8981,-0.8987,-0.9029,-0.904,-0.9017,-0.909,-0.9069,-0.9074,-0.9082,-0.9089,-0.9094,-0.909,-0.8997,0,0,0,0,0,-0.8851,-0.8878,-0.8895,-0.8934,-0.8944,-0.8952,-0.8968,-0.8968,-0.8987,-0.8995,-0.9008,-0.9028,-0.9055,-0.9072,-0.9098,-0.9147,-0.9152,-0.9169,-0.9174,-0.9179,-0.9183,-0.9209,-0.9217,-0.9136,-0.9136,-0.9135,0,0,-0.8872,-0.8887,-0.8904,-0.8939,-0.8953,-0.8981,-0.8959,-0.899,-0.9011,-0.9,-0.904,-0.905,-0.9072,-0.9117,-0.9137,-0.9127,-0.9207,-0.9183,-0.9187,-0.9189,-0.9214,-0.9221,-0.9228,-0.9138,-0.9138,-0.9137,0,0,-0.8925,-0.8939,-0.8972,-0.8987,-0.9009,-0.9014,-0.9022,-0.9042,-0.9048,-0.9088,-0.908,-0.9106,-0.9152,-0.9168,-0.9182,-0.924,-0.9233,-0.9248,-0.9276,-0.9302,-0.9308,-0.9314,-0.9334,-0.9341,-0.9253,-0.9253,-0.9253,0,-0.8948,-0.899,-0.8991,-0.9022,-0.9037,-0.9028,-0.9063,-0.9077,-0.9106,-0.9117,-0.9105,-0.9163,-0.9177,-0.9225,-0.9239,-0.9251,-0.926,-0.9245,-0.9307,-0.9313,-0.9318,-0.9337,-0.9345,-0.9255,-0.9254,-0.9254,-0.9254,0,-0.9017,-0.9046,-0.9071,-0.9098,-0.9116,-0.9149,-0.9155,-0.9174,-0.9172,-0.9179,-0.9219,-0.9236,-0.9265,-0.9276,-0.9275,-0.9324,-0.9317,-0.9306,-0.9284,-0.9327,-0.9345,-0.9353,-0.9257,-0.9256,-0.9256,-0.9255,0,0,-0.9083,-0.9111,-0.912,-0.9132,-0.9155,-0.9177,-0.921,-0.9237,-0.9252,-0.9273,-0.93,-0.9339,-0.9329,-0.9345,-0.9346,-0.9368,-0.9412,-0.9354,-0.9355,-0.9364,-0.9466,-0.9474,-0.9482,-0.9407,-0.9409,-0.941,-0.9464,0,-0.9137,-0.9192,-0.9194,-0.9245,-0.9272,-0.9264,-0.9292,-0.9309,-0.9316,-0.934,-0.9349,-0.9376,-0.9361,-0.937,-0.9392,-0.9402,-0.9432,-0.9398,-0.9432,-0.9433,-0.9426,-0.9491,-0.95,-0.955,-0.9471,-0.9472,-0.9473,0,-0.9206,-0.9228,-0.9281,-0.93,-0.9311,-0.9336,-0.9361,-0.9384,-0.9403,-0.9407,-0.9425,-0.9422,-0.9455,-0.9433,-0.9478,-0.9455,-0.9469,-0.9476,-0.9478,-0.9481,-0.9455,-0.9495,-0.9566,-0.9573,-0.9484,-0.9483,-0.9482,0,-0.9248,-0.9291,-0.9328,-0.9339,-0.9362,-0.9379,-0.939,-0.9408,-0.9424,-0.9446,-0.9457,-0.9483,-0.9497,-0.9517,-0.9522,-0.9505,-0.9567,-0.9545,-0.9571,-0.9571,-0.9584,-0.9583,-0.9657,-0.9594,-0.9594,-0.9594,-0.9594,0,-0.9307,-0.934,-0.9347,-0.937,-0.9406,-0.9409,-0.9445,-0.9454,-0.947,-0.9495,-0.949,-0.9513,-0.9518,-0.9543,-0.9547,-0.9583,-0.959,-0.9594,-0.9595,-0.9594,-0.9593,-0.9603,-0.9599,-0.9596,-0.9596,-0.9595,-0.9595,0,-0.936,-0.9366,-0.9406,-0.9424,-0.9429,-0.9455,-0.9471,-0.9493,-0.95,-0.9531,-0.9539,-0.9549,-0.9578,-0.9585,-0.9619,-0.9622,-0.9665,-0.9662,-0.9658,-0.9657,-0.9682,-0.968,-0.9765,-0.9776,-0.9707,-0.9707,-0.9708,0,-0.9396,-0.9421,-0.9442,-0.9457,-0.9469,-0.9494,-0.951,-0.9514,-0.9531,-0.9555,-0.9574,-0.9602,-0.9624,-0.967,-0.9681,-0.9707,-0.9705,-0.9733,-0.9709,-0.9707,-0.9704,-0.9702,-0.9705,-0.9737,-0.9738,-0.9738,-0.9739,0,-0.946,-0.9462,-0.9485,-0.951,-0.9529,-0.9548,-0.9567,-0.958,-0.9586,-0.9606,-0.9634,-0.9652,-0.9686,-0.9714,-0.974,-0.9751,-0.9746,-0.9747,-0.9754,-0.9753,-0.9749,-0.9751,-0.9669,-0.9744,-0.9744,-0.9743,-0.9743,-0.9743,-0.9505,-0.9527,-0.9544,-0.957,-0.9584,-0.9602,-0.9623,-0.9632,-0.9656,-0.9684,-0.9685,-0.9716,-0.9735,-0.9769,-0.9782,-0.9806,-0.9798,-0.9808,-0.9811,-0.9813,-0.9815,-0.9746,-0.9811,-0.9811,-0.9811,-0.9811,-0.9811,0,-0.9568,-0.9579,-0.9603,-0.9629,-0.9649,-0.9642,-0.9662,-0.968,-0.9707,-0.9725,-0.9747,-0.978,-0.9806,-0.982,-0.9846,-0.9863,-0.9862,-0.987,-0.9868,-0.9871,-0.9822,-0.9812,-0.9871,-0.9871,-0.9871,-0.9871,-0.9871,-0.9871,-0.9603,-0.9639,-0.9643,-0.9685,-0.9696,-0.9726,-0.9738,-0.9754,-0.9768,-0.9805,-0.9827,-0.9835,-0.9851,-0.9878,-0.9903,-0.9906,-0.9916,-0.9925,-0.9927,-0.9881,-0.9875,-0.9869,-0.986,-0.9927,-0.9927,-0.9974,-0.9975,-0.9975]}]]